Temp
-5 -5 -5 -5 -4 -6 -6 -5 -6 -6 -6 -6 -6 -6 -7 -7 -7 -7 -8 -8 -8 -8 -8 -8 -9 -9 -9 -9 -9 -8 -8 -8 -8 -8 -8 -8 -8 -7 -7 -7 -7 -7 -7 -6 -6 -6 -6 -6 -6
-5 -6 -5 -5 -6 -7 -6 -6 -6 -6 -6 -6 -6 -6 -7 -7 -7 -7 -7 -8 -7 -7 -8 -8 -8 -9 -9 -9 -9 -8 -8 -8 -8 -8 -7 -7 -7 -7 -7 -7 -7 -7 -7 -6 -6 -6 -6 -6 -6
-6 -6 -6 -5 -6 -5 -6 -6 -6 -6 -5 -6 -6 -6 -7 -7 -7 -7 -7 -7 -7 -7 -7 -7 -8 -8 -9 -9 -9 -8 -8 -8 -8 -8 -7 -7 -7 -7 -7 -7 -7 -7 -7 -7 -6 -6 -6 -6 -6
-6 -6 -5 -5 -5 -5 -6 -7 -6 -6 -6 -6 -6 -7 -7 -7 -7 -7 -7 -7 -7 -7 -7 -7 -7 -8 -8 -8 -9 -8 -8 -8 -8 -8 -8 -7 -7 -7 -7 -7 -8 -7 -7 -7 -6 -6 -6 -6 -6
-6 -6 -6 -7 -5 -5 -5 -7 -7 -7 -6 -6 -6 -7 -7 -7 -7 -7 -7 -7 -7 -7 -7 -7 -7 -7 -8 -8 -9 -9 -8 -8 -8 -8 -7 -7 -7 -7 -7 -7 -7 -7 -7 -7 -6 -6 -6 -6 -6
-6 -6 -7 -6 -6 -5 -5 -6 -7 -7 -7 -7 -7 -6 -7 -7 -7 -7 -7 -7 -7 -7 -7 -8 -7 -7 -8 -8 -8 -9 -8 -8 -8 -8 -7 -7 -8 -7 -7 -7 -7 -7 -7 -7 -7 -7 -6 -6 -6
-5 -6 -6 -6 -6 -5 -5 -6 -7 -7 -7 -7 -7 -7 -7 -7 -7 -7 -7 -7 -7 -7 -7 -8 -8 -8 -8 -8 -8 -9 -9 -8 -8 -8 -8 -7 -7 -8 -7 -7 -7 -7 -7 -7 -7 -7 -6 -6 -6
-5 -6 -6 -6 -5 -6 -5 -6 -6 -7 -8 -8 -8 -7 -7 -7 -7 -7 -7 -7 -7 -7 -7 -8 -8 -8 -8 -8 -8 -8 -9 -9 -8 -8 -8 -8 -8 -7 -7 -7 -7 -7 -7 -7 -7 -7 -6 -6 -6
-5 -6 -6 -6 -6 -6 -6 -6 -7 -7 -8 -8 -8 -8 -8 -7 -7 -7 -7 -7 -7 -7 -7 -7 -8 -8 -8 -8 -8 -8 -8 -8 -8 -8 -8 -8 -7 -8 -7 -7 -7 -7 -7 -7 -7 -7 -7 -6 -6
-6 -6 -7 -6 -6 -6 -6 -6 -6 -7 -7 -7 -8 -8 -8 -8 -7 -7 -7 -7 -7 -7 -7 -7 -7 -8 -8 -8 -8 -8 -8 -8 -8 -8 -8 -8 -7 -7 -7 -7 -7 -7 -7 -7 -7 -7 -7 -7 -6
-6 -7 -6 -7 -7 -6 -6 -6 -6 -7 -8 -7 -7 -7 -8 -8 -8 -7 -8 -8 -7 -8 -8 -8 -7 -7 -8 -8 -8 -8 -8 -8 -8 -8 -7 -7 -7 -7 -7 -7 -7 -7 -7 -7 -7 -7 -7 -6 -7
-5 -6 -7 -7 -7 -7 -7 -6 -7 -7 -7 -8 -7 -7 -7 -8 -8 -8 -8 -8 -8 -8 -8 -8 -8 -7 -8 -8 -8 -8 -7 -7 -8 -8 -8 -7 -7 -7 -7 -7 -7 -7 -7 -7 -7 -7 -7 -7 -6
-5 -6 -7 -7 -7 -7 -7 -7 -7 -7 -6 -8 -8 -7 -8 -8 -8 -8 -8 -8 -8 -8 -8 -8 -8 -8 -7 -7 -7 -8 -8 -8 -8 -8 -8 -8 -8 -7 -6 -7 -7 -7 -7 -7 -7 -7 -7 -7 -6
-5 -6 -6 -7 -7 -8 -8 -7 -7 -7 -7 -7 -8 -8 -8 -8 -8 -8 -8 -8 -8 -8 -8 -8 -8 -8 -7 -7 -7 -7 -8 -7 -8 -8 -8 -8 -8 -6 -6 -6 -7 -7 -7 -7 -7 -7 -7 -7 -7
-5 -6 -6 -6 -7 -8 -8 -8 -7 -7 -7 -7 -8 -8 -8 -8 -8 -8 -8 -8 -8 -8 -8 -8 -8 -8 -8 -8 -7 -7 -7 -8 -8 -8 -8 -7 -7 -7 -6 -6 -7 -7 -7 -7 -7 -7 -7 -7 -6
-5 -5 -6 -7 -7 -8 -7 -7 -7 -7 -7 -7 -7 -8 -8 -8 -8 -8 -8 -8 -8 -8 -8 -8 -8 -8 -8 -8 -8 -7 -7 -7 -7 -8 -8 -8 -7 -7 -7 -6 -6 -7 -7 -7 -7 -7 -7 -7 -7
-5 -5 -6 -7 -7 -7 -8 -7 -8 -7 -7 -6 -7 -7 -8 -8 -8 -8 -8 -8 -8 -8 -8 -8 -8 -8 -8 -8 -7 -7 -7 -7 -7 -7 -7 -8 -7 -7 -7 -7 -7 -6 -6 -7 -7 -7 -7 -7 -7
-6 -8 -8 -8 -7 -7 -7 -7 -7 -8 -7 -6 -6 -7 -7 -8 -8 -8 -7 -8 -8 -8 -8 -8 -8 -8 -8 -8 -7 -7 -7 -7 -7 -7 -7 -7 -7 -7 -7 -7 -7 -7 -7 -7 -7 -7 -7 -7 -7
-6 -8 -9 -9 -7 -8 -8 -7 -7 -6 -8 -7 -6 -7 -7 -7 -8 -7 -7 -7 -8 -8 -8 -8 -8 -8 -8 -8 -8 -7 -7 -7 -7 -7 -7 -7 -7 -7 -7 -7 -7 -7 -7 -7 -7 -7 -7 -7 -7
-6 -8 -8 -9 -9 -8 -8 -8 -8 -7 -7 -7 -7 -6 -7 -8 -8 -8 -7 -7 -7 -8 -8 -8 -8 -8 -8 -8 -8 -7 -7 -7 -8 -7 -7 -7 -7 -7 -7 -7 -7 -7 -7 -7 -7 -7 -7 -7 -7
-6 -7 -9 -10 -11 -11 -9 -8 -8 -8 -7 -7 -7 -7 -7 -7 -8 -8 -8 -7 -7 -7 -7 -8 -8 -8 -8 -8 -8 -8 -7 -7 -8 -8 -8 -8 -8 -7 -7 -7 -7 -7 -6 -7 -7 -7 -7 -7 -6
-7 -9 -10 -10 -11 -11 -10 -10 -10 -10 -8 -8 -8 -8 -7 -7 -7 -8 -7 -7 -8 -7 -7 -8 -8 -8 -8 -8 -8 -8 -8 -8 -8 -8 -8 -8 -8 -8 -8 -8 -7 -7 -7 -7 -7 -7 -7 -7 -7
-8 -10 -12 -12 -12 -11 -11 -11 -10 -10 -9 -8 -8 -9 -8 -8 -8 -8 -7 -8 -8 -8 -8 -8 -8 -8 -8 -7 -8 -8 -8 -8 -8 -8 -8 -7 -7 -7 -7 -8 -8 -7 -7 -7 -7 -7 -7 -6 -7
-10 -11 -13 -13 -12 -11 -11 -10 -10 -10 -10 -9 -9 -9 -8 -8 -8 -8 -8 -7 -8 -8 -8 -8 -8 -8 -8 -8 -8 -8 -7 -8 -8 -8 -7 -7 -6 -7 -6 -7 -8 -8 -7 -7 -7 -7 -7 -6 -7
-12 -13 -12 -12 -11 -11 -11 -11 -10 -10 -10 -10 -9 -9 -9 -8 -8 -8 -8 -8 -7 -8 -8 -8 -8 -8 -8 -8 -8 -8 -7 -8 -8 -8 -8 -6 -6 -7 -7 -7 -7 -7 -7 -7 -7 -7 -7 -7 -7
-13 -13 -12 -13 -12 -12 -12 -11 -11 -10 -10 -10 -9 -9 -9 -8 -8 -8 -8 -8 -8 -7 -7 -8 -7 -8 -8 -8 -8 -8 -8 -8 -8 -8 -8 -8 -7 -7 -8 -9 -8 -8 -8 -7 -7 -7 -7 -7 -7
-13 -12 -13 -13 -12 -12 -12 -12 -11 -11 -10 -10 -9 -9 -9 -8 -8 -8 -8 -8 -7 -7 -7 -7 -8 -8 -8 -8 -7 -7 -8 -8 -8 -8 -9 -8 -8 -8 -8 -8 -8 -8 -7 -7 -7 -8 -8 -7 -7
-13 -13 -12 -13 -13 -12 -11 -11 -11 -11 -11 -10 -10 -9 -9 -9 -7 -8 -8 -7 -7 -7 -7 -7 -8 -8 -8 -7 -8 -7 -8 -9 -8 -8 -9 -9 -8 -8 -8 -8 -8 -8 -7 -7 -7 -8 -8 -8 -7
-13 -13 -13 -12 -12 -12 -11 -11 -11 -11 -11 -10 -10 -10 -9 -9 -8 -8 -7 -7 -7 -7 -7 -8 -8 -7 -7 -8 -8 -8 -8 -9 -9 -8 -9 -9 -9 -9 -8 -8 -8 -8 -7 -7 -7 -7 -8 -8 -8
-13 -13 -13 -12 -12 -12 -12 -11 -11 -11 -10 -10 -10 -9 -9 -9 -8 -8 -7 -7 -7 -8 -8 -8 -8 -8 -8 -10 -8 -9 -8 -9 -9 -9 -9 -9 -9 -9 -9 -8 -8 -8 -8 -8 -7 -7 -7 -7 -7
Height
5915 5913 5912 5912 5911 5907 5909 5906 5901 5898 5895 5891 5886 5886 5885 5882 5882 5882 5879 5876 5874 5874 5874 5874 5875 5876 5878 5878 5879 5880 5881 5882 5884 5886 5888 5890 5891 5894 5895 5897 5900 5900 5902 5904 5906 5907 5910 5910 5911
5918 5916 5914 5913 5912 5915 5912 5908 5904 5901 5898 5894 5889 5888 5887 5885 5883 5882 5881 5880 5878 5876 5876 5875 5876 5877 5879 5880 5880 5881 5883 5884 5885 5886 5889 5891 5892 5895 5897 5899 5900 5902 5903 5904 5906 5909 5911 5912 5913
5921 5919 5918 5916 5917 5917 5912 5909 5907 5903 5900 5896 5893 5890 5890 5888 5885 5884 5883 5881 5880 5879 5878 5877 5877 5878 5879 5881 5882 5883 5884 5885 5886 5888 5890 5891 5894 5896 5897 5899 5901 5903 5903 5905 5908 5910 5911 5913 5915
5923 5922 5921 5919 5920 5919 5914 5910 5908 5906 5903 5900 5897 5893 5892 5890 5887 5886 5884 5883 5881 5881 5880 5879 5879 5880 5880 5880 5882 5883 5884 5885 5887 5889 5890 5892 5894 5896 5898 5900 5902 5903 5905 5906 5909 5911 5912 5914 5916
5923 5924 5924 5924 5923 5921 5919 5910 5908 5907 5906 5903 5900 5898 5894 5892 5891 5889 5886 5885 5884 5882 5881 5881 5881 5881 5881 5881 5882 5884 5885 5886 5887 5889 5891 5893 5894 5897 5898 5901 5903 5904 5906 5907 5909 5911 5913 5915 5917
5924 5926 5928 5927 5924 5923 5921 5916 5910 5908 5908 5906 5904 5901 5898 5895 5894 5893 5890 5888 5886 5883 5882 5881 5882 5882 5882 5882 5883 5884 5886 5888 5889 5890 5892 5893 5896 5897 5899 5901 5903 5904 5906 5908 5910 5912 5914 5915 5917
5926 5926 5928 5928 5927 5925 5923 5919 5915 5911 5910 5908 5906 5904 5902 5899 5896 5895 5893 5891 5888 5885 5883 5882 5881 5882 5883 5883 5883 5884 5886 5888 5889 5890 5891 5894 5895 5897 5900 5901 5903 5904 5906 5908 5910 5912 5913 5915 5917
5925 5927 5929 5929 5929 5927 5925 5922 5918 5915 5912 5909 5908 5906 5904 5902 5900 5897 5896 5894 5891 5888 5885 5882 5882 5881 5882 5883 5884 5884 5885 5887 5889 5890 5891 5892 5895 5897 5899 5901 5902 5904 5906 5908 5909 5911 5913 5915 5917
5923 5927 5928 5928 5929 5928 5926 5923 5921 5918 5916 5912 5909 5907 5907 5905 5902 5900 5898 5896 5894 5891 5888 5885 5882 5881 5881 5882 5883 5884 5884 5886 5888 5889 5890 5892 5894 5895 5897 5900 5901 5904 5906 5907 5909 5910 5912 5914 5916
5918 5922 5925 5926 5926 5926 5925 5924 5922 5920 5917 5915 5911 5908 5907 5906 5905 5903 5900 5898 5896 5894 5891 5888 5885 5882 5881 5881 5882 5883 5884 5885 5887 5889 5890 5891 5892 5894 5896 5898 5900 5903 5905 5907 5908 5910 5912 5914 5915
5916 5917 5918 5921 5922 5922 5921 5921 5921 5920 5918 5915 5913 5909 5907 5907 5906 5904 5903 5900 5899 5896 5894 5891 5888 5884 5880 5878 5880 5881 5883 5884 5885 5886 5888 5890 5891 5893 5895 5897 5899 5901 5903 5905 5907 5909 5911 5913 5914
5913 5914 5914 5916 5917 5918 5918 5918 5918 5918 5917 5916 5913 5911 5909 5907 5907 5905 5904 5902 5900 5899 5896 5893 5889 5885 5879 5877 5878 5880 5882 5884 5885 5885 5886 5887 5889 5890 5892 5894 5897 5899 5901 5903 5906 5908 5909 5911 5913
5907 5911 5909 5911 5912 5914 5915 5916 5916 5915 5915 5916 5914 5913 5911 5909 5907 5906 5905 5904 5902 5900 5898 5895 5891 5888 5884 5881 5879 5881 5883 5884 5885 5885 5885 5885 5886 5887 5890 5891 5893 5895 5898 5901 5903 5906 5907 5909 5911
5902 5904 5904 5906 5908 5908 5911 5913 5914 5912 5912 5913 5914 5913 5912 5910 5908 5906 5905 5904 5903 5901 5899 5897 5894 5891 5889 5886 5884 5884 5884 5884 5883 5883 5884 5883 5883 5884 5886 5888 5890 5892 5896 5899 5901 5904 5906 5908 5909
5897 5897 5899 5901 5904 5904 5904 5907 5910 5910 5909 5909 5911 5910 5911 5910 5908 5907 5904 5904 5903 5902 5900 5898 5896 5893 5891 5890 5889 5888 5886 5885 5883 5882 5882 5882 5881 5882 5884 5886 5889 5891 5894 5896 5898 5901 5903 5905 5907
5891 5891 5893 5898 5898 5898 5899 5900 5906 5901 5904 5904 5905 5906 5908 5908 5908 5906 5903 5903 5903 5902 5901 5898 5897 5895 5893 5892 5891 5889 5888 5886 5885 5883 5881 5880 5881 5882 5882 5884 5888 5890 5892 5893 5895 5897 5899 5901 5904
5884 5885 5887 5891 5891 5891 5891 5892 5896 5894 5898 5899 5901 5902 5904 5905 5905 5905 5904 5901 5901 5901 5900 5898 5896 5895 5893 5892 5891 5889 5888 5887 5886 5885 5883 5881 5881 5881 5882 5883 5884 5886 5889 5891 5893 5894 5896 5898 5900
5877 5876 5878 5879 5885 5882 5883 5884 5883 5889 5888 5893 5895 5897 5899 5901 5903 5902 5901 5900 5899 5899 5899 5898 5896 5895 5892 5891 5890 5889 5888 5887 5886 5884 5884 5883 5881 5881 5881 5882 5883 5884 5885 5887 5889 5891 5893 5895 5896
5866 5866 5867 5869 5870 5873 5871 5875 5875 5876 5882 5884 5888 5890 5893 5896 5897 5897 5898 5899 5897 5897 5897 5896 5894 5893 5892 5890 5889 5888 5885 5886 5885 5883 5883 5881 5881 5880 5879 5879 5879 5881 5882 5883 5885 5887 5889 5890 5893
5854 5854 5855 5857 5858 5863 5863 5864 5865 5866 5875 5874 5881 5884 5887 5889 5892 5893 5894 5895 5895 5895 5894 5894 5893 5891 5890 5889 5888 5886 5884 5882 5881 5880 5880 5878 5877 5877 5876 5875 5876 5876 5877 5879 5881 5882 5883 5886 5889
5845 5842 5845 5847 5851 5851 5853 5853 5858 5859 5861 5866 5868 5877 5880 5884 5887 5889 5889 5891 5892 5892 5892 5891 5890 5889 5887 5887 5886 5884 5882 5879 5878 5877 5876 5875 5873 5873 5872 5871 5871 5872 5873 5874 5876 5877 5879 5879 5882
5834 5833 5832 5834 5840 5841 5850 5844 5850 5851 5852 5857 5862 5868 5874 5879 5881 5883 5885 5887 5888 5888 5888 5888 5889 5888 5886 5885 5884 5882 5879 5878 5877 5874 5872 5870 5867 5866 5865 5865 5866 5867 5868 5869 5870 5872 5873 5875 5877
5824 5822 5824 5827 5829 5833 5838 5839 5844 5845 5846 5851 5858 5864 5868 5872 5876 5878 5881 5883 5882 5883 5885 5885 5886 5886 5884 5883 5882 5879 5877 5875 5873 5871 5867 5864 5860 5858 5859 5859 5860 5862 5864 5864 5866 5867 5869 5871 5872
5815 5813 5816 5818 5822 5824 5830 5835 5838 5842 5843 5846 5853 5859 5862 5867 5869 5873 5875 5878 5879 5879 5880 5881 5882 5882 5881 5881 5880 5878 5875 5872 5870 5867 5861 5857 5854 5851 5853 5855 5854 5856 5858 5859 5859 5860 5862 5864 5867
5810 5811 5814 5815 5817 5819 5825 5823 5830 5834 5836 5839 5843 5848 5851 5855 5861 5865 5869 5872 5875 5874 5875 5877 5879 5879 5878 5877 5876 5875 5873 5871 5868 5864 5858 5852 5848 5847 5848 5851 5852 5853 5854 5854 5854 5854 5855 5857 5861
5812 5811 5813 5811 5810 5806 5807 5817 5824 5826 5832 5832 5837 5839 5842 5846 5850 5855 5861 5864 5868 5870 5870 5872 5874 5875 5875 5874 5874 5871 5870 5868 5865 5862 5858 5852 5846 5844 5845 5849 5849 5850 5851 5851 5849 5848 5849 5851 5854
5807 5805 5808 5806 5808 5807 5806 5811 5819 5820 5825 5826 5828 5831 5834 5837 5842 5847 5853 5856 5859 5861 5863 5866 5868 5870 5870 5872 5871 5868 5866 5865 5863 5861 5858 5855 5852 5848 5848 5848 5849 5847 5847 5847 5846 5845 5843 5844 5847
5805 5804 5806 5803 5803 5803 5802 5806 5812 5815 5818 5817 5822 5824 5825 5828 5833 5836 5841 5846 5850 5851 5853 5859 5863 5866 5866 5867 5867 5865 5863 5862 5861 5859 5858 5855 5852 5850 5848 5846 5845 5845 5844 5843 5843 5841 5840 5839 5840
5801 5799 5799 5803 5802 5796 5804 5805 5808 5809 5810 5813 5815 5817 5819 5821 5824 5828 5831 5834 5838 5840 5844 5851 5856 5859 5860 5862 5862 5862 5860 5860 5859 5856 5855 5852 5850 5848 5846 5845 5844 5844 5843 5841 5840 5838 5838 5839 5838
5795 5795 5796 5798 5799 5796 5795 5798 5802 5800 5803 5806 5809 5812 5813 5814 5816 5819 5823 5826 5830 5833 5839 5845 5849 5851 5852 5854 5856 5856 5857 5856 5856 5854 5852 5849 5847 5846 5844 5843 5842 5841 5840 5840 5839 5837 5836 5836 5836
Wind_Speed
17 17 18 19 19 30 24 24 29 28 29 30 30 26 24 22 18 13 9 7 9 8 6 7 8 9 9 9 11 12 14 16 16 16 13 12 13 13 13 13 12 13 13 13 12 14 13 15 17
15 13 14 17 25 16 21 23 25 27 27 28 32 30 28 22 20 18 12 8 7 7 7 6 7 11 12 12 12 12 13 14 16 16 15 13 12 12 13 12 12 13 13 13 12 13 15 15 16
13 13 11 13 19 13 20 21 22 26 28 29 31 33 31 27 23 20 16 12 9 7 7 6 5 7 12 13 14 15 16 15 14 16 15 14 13 12 12 11 11 12 13 13 12 13 15 15 15
5 7 9 16 9 10 15 21 21 23 27 28 27 33 32 33 27 24 19 14 11 9 7 5 4 3 8 11 13 14 16 17 17 15 15 14 13 13 13 12 10 11 13 14 14 14 15 16 15
7 5 8 9 11 10 10 20 22 21 23 25 25 27 29 30 29 27 25 17 14 11 8 5 3 3 4 9 12 14 14 15 16 17 16 15 14 13 13 13 12 12 12 14 14 14 15 16 16
10 7 7 7 7 9 8 15 20 21 20 21 22 24 28 28 28 26 27 23 19 15 10 6 4 2 2 6 10 13 14 14 15 16 16 15 15 15 14 14 14 12 11 13 14 14 15 15 15
12 10 6 8 7 9 11 12 17 19 17 17 18 21 22 24 27 26 26 25 23 20 14 8 2 0 2 5 9 12 15 17 16 15 16 15 15 15 15 15 15 14 12 13 13 14 15 15 13
8 7 9 9 9 10 8 8 13 16 16 14 14 16 18 20 23 26 25 26 26 24 20 14 5 2 3 4 8 10 13 16 18 18 17 17 17 16 17 16 15 15 14 13 14 14 14 15 14
10 3 5 10 10 11 10 3 7 9 13 13 14 13 14 16 19 20 22 24 26 26 25 23 11 1 4 6 5 10 12 14 17 18 18 18 19 18 18 19 18 17 16 15 14 16 15 16 16
14 10 11 11 12 8 11 12 6 3 8 9 12 12 10 12 15 16 18 21 23 26 25 24 24 14 6 4 7 8 9 12 14 17 19 20 21 20 19 19 20 19 18 18 15 13 16 16 16
18 17 17 15 14 10 7 9 11 2 0 4 3 7 6 8 12 13 16 18 20 23 25 24 23 22 13 4 7 10 11 11 12 14 15 16 18 19 20 19 19 21 21 19 18 15 14 16 17
22 21 23 21 19 15 12 6 10 4 7 4 2 5 5 7 9 11 12 14 17 19 21 24 23 26 20 4 8 7 5 7 11 11 13 14 15 18 19 20 19 18 22 21 20 18 16 16 17
25 21 27 26 26 20 19 14 10 12 10 8 9 6 3 6 7 9 11 11 14 17 19 22 23 23 25 23 6 4 2 1 4 6 9 12 14 16 17 19 20 20 24 23 23 20 19 17 18
26 25 27 28 26 27 23 22 14 17 14 10 8 6 6 2 5 5 9 9 11 13 16 20 20 21 19 22 20 7 3 3 2 6 8 10 13 16 15 19 20 20 22 24 22 21 19 18 18
28 30 29 27 27 30 31 29 21 18 19 15 9 12 5 6 3 3 5 7 8 10 14 17 19 18 18 15 15 15 13 8 8 5 4 6 8 11 13 15 17 20 19 22 24 24 22 22 20
33 34 31 26 29 35 33 33 23 29 26 22 19 18 14 11 10 3 3 4 5 8 12 15 17 19 19 14 12 10 11 10 11 6 4 6 4 9 14 15 16 18 19 20 23 25 25 25 23
37 36 33 28 31 32 41 38 35 37 30 29 25 22 18 15 12 10 8 4 1 3 7 12 15 17 19 18 12 12 12 9 8 11 7 4 2 5 12 15 16 18 20 20 20 22 25 27 26
35 38 33 36 30 37 38 41 47 41 41 32 29 28 21 19 18 17 15 9 5 5 5 10 13 15 15 19 17 14 14 11 10 9 7 7 3 4 6 13 17 19 20 20 21 22 23 24 29
36 39 42 41 40 38 41 40 44 47 43 42 35 31 26 16 22 20 19 14 8 7 9 10 11 17 16 17 18 16 19 15 12 12 12 10 8 5 7 9 13 19 21 21 21 22 23 24 25
41 43 47 46 48 40 44 42 44 47 39 46 38 34 30 25 25 23 22 18 13 13 10 10 13 13 17 17 19 15 17 17 15 13 14 13 13 13 8 11 14 16 19 21 24 24 24 24 24
43 47 46 44 36 36 42 46 41 43 44 37 38 35 31 27 30 24 26 22 18 14 14 18 18 16 16 18 21 18 17 16 17 16 16 15 19 19 18 15 16 16 17 18 20 24 26 26 25
43 40 43 46 38 39 28 38 32 29 38 37 34 36 31 32 28 30 31 25 19 18 21 26 25 22 15 14 18 20 20 18 17 18 22 22 25 23 21 18 18 18 18 18 18 20 24 26 27
42 37 28 32 35 37 34 37 28 25 33 32 32 29 32 30 30 29 24 21 22 23 25 28 24 16 19 16 17 21 21 19 21 22 23 23 22 23 19 19 17 17 18 19 20 22 23 24 26
31 29 24 29 28 35 32 33 29 24 21 18 23 26 32 31 32 33 33 29 28 26 26 26 23 23 23 19 18 21 19 17 22 22 22 22 19 14 14 13 13 13 16 19 19 21 22 24 25
15 12 18 22 25 30 25 27 30 23 16 17 29 28 36 40 38 39 36 35 29 29 29 26 22 24 26 22 20 21 18 17 20 19 19 23 14 12 17 10 9 10 13 14 16 19 22 23 24
14 13 18 23 21 28 22 33 20 18 19 16 26 33 40 44 43 41 41 36 32 28 31 30 26 25 25 24 21 20 16 16 19 14 13 17 11 10 10 7 5 6 10 13 14 16 20 21 23
14 22 14 21 21 23 21 14 17 21 16 20 24 30 34 36 48 49 44 40 37 35 37 33 27 26 28 24 21 21 15 15 17 12 10 7 6 5 4 2 1 2 5 9 10 9 10 23 22
18 16 14 13 16 22 30 27 20 19 21 26 26 28 34 36 42 42 45 39 35 34 35 33 30 28 26 22 23 22 16 16 15 11 11 6 4 1 1 2 3 4 5 6 8 7 10 6 21
17 18 18 19 27 18 22 24 17 23 25 27 25 27 27 32 38 34 33 35 30 29 30 32 32 25 22 21 24 23 17 18 14 8 8 9 9 6 4 5 6 7 7 7 6 7 7 9 9
16 17 21 21 22 19 22 25 17 27 23 31 24 22 26 27 24 22 23 26 27 29 33 32 29 25 27 18 19 18 19 21 18 14 11 6 5 6 6 8 8 8 10 11 8 6 6 9 11
Wind_Direction
62 70 73 76 77 61 64 61 56 49 46 55 56 52 54 53 48 51 58 72 85 75 77 119 163 170 168 162 158 153 144 142 144 151 143 147 139 136 127 129 137 130 133 129 127 132 139 129 132
56 59 54 61 74 69 63 64 58 57 52 55 56 54 46 49 52 48 46 59 79 90 90 114 156 178 177 174 164 165 161 151 151 153 157 160 157 148 139 136 137 140 135 133 133 142 142 136 136
68 56 32 26 71 85 76 67 63 60 57 55 60 59 51 46 47 43 45 56 62 57 72 91 120 171 189 189 180 169 169 163 157 157 159 155 163 164 151 146 142 144 144 143 145 148 145 142 140
39 45 14 11 37 70 87 77 66 60 61 58 61 57 51 46 46 47 44 45 65 62 58 75 88 141 177 189 195 181 170 169 168 161 158 161 162 160 162 159 166 151 153 154 158 152 148 150 143
338 1 10 25 0 359 75 89 79 66 61 63 61 56 53 48 44 49 49 54 48 52 58 52 80 119 158 176 187 189 181 173 171 166 166 170 163 164 166 173 174 161 163 162 164 156 152 155 151
327 328 13 8 2 346 59 90 86 79 71 68 67 63 55 56 52 43 47 47 44 42 42 38 31 2 149 170 179 189 191 187 177 171 170 173 175 171 171 175 175 171 169 171 169 164 159 159 159
316 313 330 5 352 342 349 75 83 82 75 70 67 66 61 56 56 49 45 42 40 36 28 10 21 56 177 177 173 181 189 190 187 177 173 177 181 177 176 178 182 179 180 173 175 172 164 166 164
326 325 309 311 340 329 341 48 76 78 79 77 62 58 63 62 58 56 52 42 37 34 31 18 344 236 188 191 182 177 186 190 192 188 183 181 181 181 185 183 188 187 182 175 175 176 176 171 169
280 253 277 297 321 320 331 352 56 75 76 76 63 51 56 62 61 58 54 48 39 35 34 31 28 342 201 193 194 185 181 188 196 196 193 192 189 188 188 186 192 194 192 180 184 178 184 177 178
262 249 228 250 281 301 342 319 298 43 74 69 77 55 34 51 63 57 50 49 42 36 34 31 40 39 356 220 201 195 191 189 194 203 205 201 199 199 192 191 194 197 199 193 192 192 188 186 185
247 246 237 233 253 266 296 321 280 310 256 107 97 91 76 34 54 53 46 39 41 36 33 28 29 25 7 258 221 211 217 203 194 202 213 219 215 210 205 202 196 198 201 200 199 198 199 194 191
267 248 254 251 239 245 248 296 250 241 257 272 264 298 101 99 69 52 43 38 27 30 31 29 25 23 34 39 211 213 208 213 216 212 210 216 225 224 217 210 205 204 203 201 204 201 202 199 198
271 255 250 249 255 249 239 251 239 222 233 261 295 280 111 113 98 69 49 43 30 21 25 28 26 28 32 34 47 162 142 222 246 230 215 221 224 227 226 220 210 208 203 204 205 205 206 203 202
268 260 254 252 249 255 249 251 260 221 219 232 304 267 276 224 119 113 65 51 37 18 20 25 26 27 32 36 49 101 94 119 192 228 220 228 232 228 216 219 209 207 203 206 208 210 213 209 207
278 266 256 248 247 245 255 253 256 244 218 226 242 280 259 244 180 127 78 54 52 27 9 15 26 28 24 31 42 48 45 24 11 102 218 234 230 216 209 223 214 208 201 207 210 212 213 214 216
277 273 267 260 245 241 249 255 248 250 222 213 224 248 244 233 241 254 160 102 79 31 6 359 9 18 23 12 16 25 24 24 32 25 19 164 222 210 205 207 218 216 211 208 209 213 215 216 217
281 281 273 264 253 248 241 248 242 248 240 226 220 235 246 228 229 251 252 202 241 335 351 347 351 4 10 13 4 350 352 355 17 30 20 25 61 228 216 215 212 216 218 221 218 217 218 219 221
285 279 273 263 244 253 246 247 249 239 246 236 223 226 229 229 233 240 251 229 243 294 316 321 337 341 359 359 355 353 343 338 332 339 357 24 338 248 219 227 229 224 222 229 226 224 225 223 223
274 267 263 256 260 245 252 249 251 250 241 248 236 223 231 232 233 238 244 241 243 263 282 298 310 321 333 348 347 344 338 336 320 321 325 328 325 335 266 238 233 237 234 231 229 228 224 228 228
269 264 264 264 261 252 251 247 252 254 250 249 239 230 225 233 235 233 238 244 242 252 263 274 289 307 318 324 338 335 332 329 317 314 312 303 302 299 287 257 250 237 234 238 238 232 231 235 233
278 269 264 263 258 261 256 253 252 259 255 251 245 235 228 227 237 238 241 251 248 250 265 261 271 280 299 319 329 330 324 319 322 310 311 298 299 291 276 267 246 246 240 237 236 239 239 237 236
279 273 269 258 255 257 256 259 249 255 253 249 241 238 233 230 240 233 245 247 253 258 267 271 273 268 291 309 320 318 315 316 323 306 310 310 305 290 282 259 250 240 243 246 245 245 242 242 241
280 271 255 260 253 253 247 257 259 258 259 247 233 233 238 238 238 239 237 226 240 252 267 273 291 306 299 301 311 310 312 318 318 317 315 314 302 282 266 268 238 234 246 250 253 252 253 245 243
280 259 253 247 243 243 246 248 250 256 259 245 233 229 229 235 239 244 246 246 240 251 266 279 292 290 291 296 301 302 311 314 320 319 321 319 313 299 244 249 220 225 240 253 256 252 254 250 243
267 267 262 257 249 248 241 240 248 242 243 246 221 213 219 227 237 240 246 249 242 247 260 268 274 275 279 288 294 296 306 313 319 318 328 331 290 261 248 229 229 247 254 253 254 256 249 243 243
270 252 245 248 249 234 218 249 241 263 244 257 235 229 230 229 231 238 247 249 252 249 263 257 260 264 272 279 289 290 297 310 313 311 339 1 336 313 156 165 225 253 261 256 260 256 246 247 239
283 297 240 256 247 260 261 275 246 240 236 238 231 243 245 243 244 247 248 252 252 257 262 253 249 260 264 272 286 283 288 297 305 298 324 3 27 80 97 107 261 237 270 269 262 259 257 238 239
281 278 285 274 264 249 263 250 248 241 221 234 234 242 250 257 252 251 252 255 253 249 240 234 245 255 259 268 284 279 279 284 289 285 279 306 300 329 190 208 224 248 266 268 274 262 269 256 231
279 288 275 258 267 277 260 260 284 253 234 231 236 251 256 259 262 260 257 256 252 219 215 227 237 248 259 279 282 284 274 274 267 280 283 278 275 290 315 308 289 276 266 270 273 269 261 256 242
265 264 260 257 282 275 268 262 264 249 260 230 236 247 253 257 254 252 243 227 217 215 221 233 244 235 246 257 272 280 280 269 265 265 267 261 251 257 253 260 276 295 298 273 265 258 264 260 254